Tracking 17842 objects as of 29-August-2016
HD Live streaming from Space Station
objects crossing your sky now

ARIANE 5 DEB (SYLDA)

Track ARIANE 5 DEB (SYLDA) now!


NORAD ID: 28914
Int'l Code: 2005-049D
Perigee: 664.4 km
Apogee: 36,025.4 km
Inclination: 4.0 °
Period: 644.5 minutes
Semi major axis: 24715 km
RCS: 22.4158 m2 (large)
Launch date: December 21, 2005
Source: France (FR)
Launch site: FRENCH GUIANA (FRGUI)

Note: This is SATELLITE DEBRIS
Your satellite tracking list
Your tracking list is empty





NASA's NSSDC Master Catalog

Two Line Element Set (TLE):
1 28914U 05049D   16241.74289322 -.00000115  00000-0 -32776-3 0  9990
2 28914   4.0251 231.8095 7153486 171.9480 340.4980  2.23428064 87217
Source of the keplerian elements: AFSPC

N2YO: 448